owner,sensor,date,latitude,longitude,vertical_datum,direction_of_sea_water_velocity,sea_water_speed,upward_sea_water_velocity,qcFlag 
TABS,ioos:station:wmo:42050:1,1996-02-23T00:00:00Z,28.8425,-94.2433,2.0,220.75907,7.076298467,-99999.0,'11133222,11111222,99999999' 
TABS,ioos:station:wmo:42050:1,1996-02-23T00:30:00Z,28.8425,-94.2433,2.0,222.6182509,7.487656509,-99999.0,'11133222,11111222,99999999' 
TABS,ioos:station:wmo:42050:1,1996-02-23T01:00:00Z,28.8425,-94.2433,2.0,216.0218851,8.110887744,-99999.0,'11133222,11111222,99999999' 
TABS,ioos:station:wmo:42050:1,1996-02-23T01:30:00Z,28.8425,-94.2433,2.0,190.7630316,6.372103263,-99999.0,'11133222,11111222,99999999' 
TABS,ioos:station:wmo:42050:1,1996-02-23T02:00:00Z,28.8425,-94.2433,2.0,195.4834764,8.353167064,-99999.0,'11133222,11111222,99999999' 
TABS,ioos:station:wmo:42050:1,1996-02-23T02:30:00Z,28.8425,-94.2433,2.0,200.5708427,8.908002021,-99999.0,'11133222,11111222,99999999' 
TABS,ioos:station:wmo:42050:1,1996-02-23T03:00:00Z,28.8425,-94.2433,2.0,186.9508445,7.354053304,-99999.0,'11133222,11111222,99999999' 
TABS,ioos:station:wmo:42050:1,1996-02-23T03:30:00Z,28.8425,-94.2433,2.0,179.9997895,3.87,-99999.0,'11133222,11111222,99999999' 
TABS,ioos:station:wmo:42050:1,1996-02-23T04:00:00Z,28.8425,-94.2433,2.0,104.149443,1.227232659,-99999.0,'11133222,11111222,99999999' 
TABS,ioos:station:wmo:42050:1,1996-02-23T04:30:00Z,28.8425,-94.2433,2.0,90.0,1.34,-99999.0,'11133222,11111222,99999999' 
TABS,ioos:station:wmo:42050:1,1996-02-23T05:00:00Z,28.8425,-94.2433,2.0,62.09239006,2.862953021,-99999.0,'11133222,11111222,99999999' 
TABS,ioos:station:wmo:42050:1,1996-02-23T05:30:00Z,28.8425,-94.2433,2.0,45.00010523,4.42648845,-99999.0,'11133222,11111222,99999999' 
TABS,ioos:station:wmo:42050:1,1996-02-23T06:00:00Z,28.8425,-94.2433,2.0,47.31594658,7.69961038,-99999.0,'11133222,11111222,99999999' 
TABS,ioos:station:wmo:42050:1,1996-02-23T06:30:00Z,28.8425,-94.2433,2.0,39.80568847,11.63727202,-99999.0,'11111222,11111222,99999999' 
TABS,ioos:station:wmo:42050:1,1996-02-23T07:00:00Z,28.8425,-94.2433,2.0,38.1371313,15.91789245,-99999.0,'11111222,11111222,99999999' 
TABS,ioos:station:wmo:42050:1,1996-02-23T07:30:00Z,28.8425,-94.2433,2.0,42.66280484,18.03208252,-99999.0,'11111222,11111222,99999999' 
TABS,ioos:station:wmo:42050:1,1996-02-23T08:00:00Z,28.8425,-94.2433,2.0,51.14971604,20.66034124,-99999.0,'11111222,11111222,99999999' 
TABS,ioos:station:wmo:42050:1,1996-02-23T08:30:00Z,28.8425,-94.2433,2.0,40.23647468,25.37378569,-99999.0,'11111222,11111222,99999999' 
TABS,ioos:station:wmo:42050:1,1996-02-23T09:00:00Z,28.8425,-94.2433,2.0,54.99945997,27.28451942,-99999.0,'11111222,11111222,99999999' 
TABS,ioos:station:wmo:42050:1,1996-02-23T09:30:00Z,28.8425,-94.2433,2.0,55.69740295,27.23733651,-99999.0,'11111222,11111222,99999999' 
TABS,ioos:station:wmo:42050:1,1996-02-23T10:00:00Z,28.8425,-94.2433,2.0,56.96945211,28.43581544,-99999.0,'11111222,11111222,99999999' 
TABS,ioos:station:wmo:42050:1,1996-02-23T10:30:00Z,28.8425,-94.2433,2.0,60.44200013,29.29219862,-99999.0,'11111222,11111222,99999999' 
TABS,ioos:station:wmo:42050:1,1996-02-23T11:00:00Z,28.8425,-94.2433,2.0,58.61007365,30.89117997,-99999.0,'11111222,11111222,99999999' 
TABS,ioos:station:wmo:42050:1,1996-02-23T11:30:00Z,28.8425,-94.2433,2.0,59.79094516,31.38181798,-99999.0,'11111222,11111222,99999999' 
TABS,ioos:station:wmo:42050:1,1996-02-23T12:00:00Z,28.8425,-94.2433,2.0,61.66582377,30.12972619,-99999.0,'11111222,11111222,99999999' 
TABS,ioos:station:wmo:42050:1,1996-02-23T12:30:00Z,28.8425,-94.2433,2.0,65.90625422,31.01179937,-99999.0,'11111222,11111222,99999999' 
TABS,ioos:station:wmo:42050:1,1996-02-23T13:00:00Z,28.8425,-94.2433,2.0,74.99276969,31.62876223,-99999.0,'11111222,11111222,99999999' 
TABS,ioos:station:wmo:42050:1,1996-02-23T13:30:00Z,28.8425,-94.2433,2.0,78.83603956,33.10647218,-99999.0,'11111222,11111222,99999999' 
TABS,ioos:station:wmo:42050:1,1996-02-23T14:00:00Z,28.8425,-94.2433,2.0,87.94906126,33.25130073,-99999.0,'11111222,11111222,99999999' 
TABS,ioos:station:wmo:42050:1,1996-02-23T14:30:00Z,28.8425,-94.2433,2.0,96.99158409,33.02557797,-99999.0,'11111222,11111222,99999999' 
TABS,ioos:station:wmo:42050:1,1996-02-23T15:00:00Z,28.8425,-94.2433,2.0,100.8445133,39.59715394,-99999.0,'11111222,11111222,99999999' 
TABS,ioos:station:wmo:42050:1,1996-02-23T15:30:00Z,28.8425,-94.2433,2.0,108.2283004,38.58636288,-99999.0,'11111222,11111222,99999999' 
TABS,ioos:station:wmo:42050:1,1996-02-23T16:00:00Z,28.8425,-94.2433,2.0,114.0932825,38.67971303,-99999.0,'11111222,11111222,99999999' 
TABS,ioos:station:wmo:42050:1,1996-02-23T16:30:00Z,28.8425,-94.2433,2.0,124.2648849,37.31656067,-99999.0,'11111222,11111222,99999999' 
TABS,ioos:station:wmo:42050:1,1996-02-23T17:00:00Z,28.8425,-94.2433,2.0,131.1951098,34.84524214,-99999.0,'11111222,11111222,99999999' 
TABS,ioos:station:wmo:42050:1,1996-02-23T17:30:00Z,28.8425,-94.2433,2.0,136.386279,34.77862131,-99999.0,'11111222,11111222,99999999' 
TABS,ioos:station:wmo:42050:1,1996-02-23T18:00:00Z,28.8425,-94.2433,2.0,136.5562062,34.88737594,-99999.0,'11111222,11111222,99999999' 
TABS,ioos:station:wmo:42050:1,1996-02-23T18:30:00Z,28.8425,-94.2433,2.0,141.7853809,30.34235489,-99999.0,'11111222,11111222,99999999' 
TABS,ioos:station:wmo:42050:1,1996-02-23T19:00:00Z,28.8425,-94.2433,2.0,145.7091196,27.77813889,-99999.0,'11111222,11111222,99999999' 
TABS,ioos:station:wmo:42050:1,1996-02-23T19:30:00Z,28.8425,-94.2433,2.0,158.3348165,23.40324977,-99999.0,'11111222,11111222,99999999' 
TABS,ioos:station:wmo:42050:1,1996-02-23T20:00:00Z,28.8425,-94.2433,2.0,167.9630132,20.71545317,-99999.0,'11111222,11111222,99999999' 
TABS,ioos:station:wmo:42050:1,1996-02-23T20:30:00Z,28.8425,-94.2433,2.0,165.0064614,17.27822329,-99999.0,'11111222,11111222,99999999' 
TABS,ioos:station:wmo:42050:1,1996-02-23T21:00:00Z,28.8425,-94.2433,2.0,179.4801939,16.54068016,-99999.0,'11111222,11111222,99999999' 
TABS,ioos:station:wmo:42050:1,1996-02-23T21:30:00Z,28.8425,-94.2433,2.0,195.273361,13.59001472,-99999.0,'11111222,11111222,99999999' 
TABS,ioos:station:wmo:42050:1,1996-02-23T22:00:00Z,28.8425,-94.2433,2.0,197.3722331,12.96124222,-99999.0,'11111222,11111222,99999999' 
TABS,ioos:station:wmo:42050:1,1996-02-23T22:30:00Z,28.8425,-94.2433,2.0,199.7768397,11.88077439,-99999.0,'11111222,11111222,99999999' 
TABS,ioos:station:wmo:42050:1,1996-02-23T23:00:00Z,28.8425,-94.2433,2.0,192.282957,11.89223696,-99999.0,'11111222,11111222,99999999' 
TABS,ioos:station:wmo:42050:1,1996-02-23T23:30:00Z,28.8425,-94.2433,2.0,216.9923907,12.13202786,-99999.0,'11111222,11111222,99999999' 
TABS,ioos:station:wmo:42050:1,1996-02-24T00:00:00Z,28.8425,-94.2433,2.0,216.2246491,13.85887802,-99999.0,'11111222,11111222,99999999' 
TABS,ioos:station:wmo:42050:1,1996-02-24T00:30:00Z,28.8425,-94.2433,2.0,223.109425,12.86220043,-99999.0,'11111222,11111222,99999999' 
TABS,ioos:station:wmo:42050:1,1996-02-24T01:00:00Z,28.8425,-94.2433,2.0,218.0605651,11.35445287,-99999.0,'11111222,11111222,99999999' 
TABS,ioos:station:wmo:42050:1,1996-02-24T01:30:00Z,28.8425,-94.2433,2.0,224.9996843,14.11385135,-99999.0,'11111222,11111222,99999999' 
TABS,ioos:station:wmo:42050:1,1996-02-24T02:00:00Z,28.8425,-94.2433,2.0,215.487169,15.91663281,-99999.0,'11111222,11111222,99999999' 
TABS,ioos:station:wmo:42050:1,1996-02-24T02:30:00Z,28.8425,-94.2433,2.0,198.6119434,16.35537832,-99999.0,'11111222,11111222,99999999' 
TABS,ioos:station:wmo:42050:1,1996-02-24T03:00:00Z,28.8425,-94.2433,2.0,191.8367472,15.99002502,-99999.0,'11111222,11111222,99999999' 
TABS,ioos:station:wmo:42050:1,1996-02-24T03:30:00Z,28.8425,-94.2433,2.0,182.7873515,24.4689538,-99999.0,'11111222,11111222,99999999' 
TABS,ioos:station:wmo:42050:1,1996-02-24T04:00:00Z,28.8425,-94.2433,2.0,195.269154,31.66793489,-99999.0,'11111222,11111222,99999999' 
TABS,ioos:station:wmo:42050:1,1996-02-24T04:30:00Z,28.8425,-94.2433,2.0,215.1250395,31.33652501,-99999.0,'11111222,11111222,99999999' 
TABS,ioos:station:wmo:42050:1,1996-02-24T05:00:00Z,28.8425,-94.2433,2.0,231.0732743,29.87324053,-99999.0,'11111222,11111222,99999999' 
TABS,ioos:station:wmo:42050:1,1996-02-24T05:30:00Z,28.8425,-94.2433,2.0,237.1941672,26.94777356,-99999.0,'11111222,11111222,99999999' 
TABS,ioos:station:wmo:42050:1,1996-02-24T06:00:00Z,28.8425,-94.2433,2.0,253.5235329,19.4277379,-99999.0,'11111222,11111222,99999999' 
TABS,ioos:station:wmo:42050:1,1996-02-24T06:30:00Z,28.8425,-94.2433,2.0,272.694277,15.95763454,-99999.0,'11111222,11111222,99999999' 
TABS,ioos:station:wmo:42050:1,1996-02-24T07:00:00Z,28.8425,-94.2433,2.0,298.6845078,14.27140147,-99999.0,'11111222,11111222,99999999' 
TABS,ioos:station:wmo:42050:1,1996-02-24T07:30:00Z,28.8425,-94.2433,2.0,316.9094637,15.7064891,-99999.0,'11111222,11111222,99999999' 
TABS,ioos:station:wmo:42050:1,1996-02-24T08:00:00Z,28.8425,-94.2433,2.0,330.3920748,15.07894559,-99999.0,'11111222,11111222,99999999' 
TABS,ioos:station:wmo:42050:1,1996-02-24T08:30:00Z,28.8425,-94.2433,2.0,338.6498074,18.40297802,-99999.0,'11111222,11111222,99999999' 
TABS,ioos:station:wmo:42050:1,1996-02-24T09:00:00Z,28.8425,-94.2433,2.0,349.568239,18.94312012,-99999.0,'11111222,11111222,99999999' 
TABS,ioos:station:wmo:42050:1,1996-02-24T09:30:00Z,28.8425,-94.2433,2.0,2.151014047,19.98407866,-99999.0,'11111222,11111222,99999999' 
TABS,ioos:station:wmo:42050:1,1996-02-24T10:00:00Z,28.8425,-94.2433,2.0,12.81639022,25.51568145,-99999.0,'11111222,11111222,99999999' 
TABS,ioos:station:wmo:42050:1,1996-02-24T10:30:00Z,28.8425,-94.2433,2.0,16.82697101,23.66315702,-99999.0,'11111222,11111222,99999999' 
TABS,ioos:station:wmo:42050:1,1996-02-24T11:00:00Z,28.8425,-94.2433,2.0,25.33199964,24.727695,-99999.0,'11111222,11111222,99999999' 
TABS,ioos:station:wmo:42050:1,1996-02-24T11:30:00Z,28.8425,-94.2433,2.0,38.88777404,22.77812328,-99999.0,'11111222,11111222,99999999' 
TABS,ioos:station:wmo:42050:1,1996-02-24T12:00:00Z,28.8425,-94.2433,2.0,46.57280595,23.18769501,-99999.0,'11111222,11111222,99999999' 
TABS,ioos:station:wmo:42050:1,1996-02-24T12:30:00Z,28.8425,-94.2433,2.0,59.63786553,24.175773,-99999.0,'11111222,11111222,99999999' 
TABS,ioos:station:wmo:42050:1,1996-02-24T13:00:00Z,28.8425,-94.2433,2.0,60.38943972,23.82093617,-99999.0,'11111222,11111222,99999999' 
TABS,ioos:station:wmo:42050:1,1996-02-24T13:30:00Z,28.8425,-94.2433,2.0,61.08719393,24.34438334,-99999.0,'11111222,11111222,99999999' 
TABS,ioos:station:wmo:42050:1,1996-02-24T14:00:00Z,28.8425,-94.2433,2.0,91.87174059,22.96225163,-99999.0,'11111222,11111222,99999999' 
TABS,ioos:station:wmo:42050:1,1996-02-24T14:30:00Z,28.8425,-94.2433,2.0,90.79572169,21.60208323,-99999.0,'11111222,11111222,99999999' 
TABS,ioos:station:wmo:42050:1,1996-02-24T15:00:00Z,28.8425,-94.2433,2.0,108.0665878,21.15291233,-99999.0,'11111222,11111222,99999999' 
TABS,ioos:station:wmo:42050:1,1996-02-24T15:30:00Z,28.8425,-94.2433,2.0,120.8761386,16.83603576,-99999.0,'11111222,11111222,99999999' 
TABS,ioos:station:wmo:42050:1,1996-02-24T16:00:00Z,28.8425,-94.2433,2.0,163.9843874,13.48332303,-99999.0,'11111222,11111222,99999999' 
TABS,ioos:station:wmo:42050:1,1996-02-24T16:30:00Z,28.8425,-94.2433,2.0,175.1925984,14.1999507,-99999.0,'11111222,11111222,99999999' 
TABS,ioos:station:wmo:42050:1,1996-02-24T17:00:00Z,28.8425,-94.2433,2.0,183.713989,13.7388573,-99999.0,'11111222,11111222,99999999' 
TABS,ioos:station:wmo:42050:1,1996-02-24T17:30:00Z,28.8425,-94.2433,2.0,204.685868,12.13943162,-99999.0,'11111222,11111222,99999999' 
TABS,ioos:station:wmo:42050:1,1996-02-24T18:00:00Z,28.8425,-94.2433,2.0,209.0724745,6.132699243,-99999.0,'11133222,11111222,99999999' 
TABS,ioos:station:wmo:42050:1,1996-02-24T18:30:00Z,28.8425,-94.2433,2.0,229.8093478,8.770724029,-99999.0,'11133222,11111222,99999999' 
TABS,ioos:station:wmo:42050:1,1996-02-24T19:00:00Z,28.8425,-94.2433,2.0,242.9131423,7.862340618,-99999.0,'11133222,11111222,99999999' 
TABS,ioos:station:wmo:42050:1,1996-02-24T19:30:00Z,28.8425,-94.2433,2.0,261.030439,8.59509744,-99999.0,'11133222,11111222,99999999' 
TABS,ioos:station:wmo:42050:1,1996-02-24T20:00:00Z,28.8425,-94.2433,2.0,260.7332228,12.97937595,-99999.0,'11111222,11111222,99999999' 
TABS,ioos:station:wmo:42050:1,1996-02-24T20:30:00Z,28.8425,-94.2433,2.0,278.05443,13.84657719,-99999.0,'11111222,11111222,99999999' 
TABS,ioos:station:wmo:42050:1,1996-02-24T21:00:00Z,28.8425,-94.2433,2.0,281.4223344,15.0480198,-99999.0,'11111222,11111222,99999999' 
TABS,ioos:station:wmo:42050:1,1996-02-24T21:30:00Z,28.8425,-94.2433,2.0,279.9487284,17.24936231,-99999.0,'11111222,11111222,99999999' 
TABS,ioos:station:wmo:42050:1,1996-02-24T22:00:00Z,28.8425,-94.2433,2.0,289.130066,19.56012526,-99999.0,'11111222,11111222,99999999' 
TABS,ioos:station:wmo:42050:1,1996-02-24T22:30:00Z,28.8425,-94.2433,2.0,289.08066,20.49602157,-99999.0,'11111222,11111222,99999999' 
TABS,ioos:station:wmo:42050:1,1996-02-24T23:00:00Z,28.8425,-94.2433,2.0,300.8927975,22.04787518,-99999.0,'11111222,11111222,99999999' 
TABS,ioos:station:wmo:42050:1,1996-02-24T23:30:00Z,28.8425,-94.2433,2.0,306.5758667,23.7463134,-99999.0,'11111222,11111222,99999999' 
TABS,ioos:station:wmo:42050:1,1996-02-25T00:00:00Z,28.8425,-94.2433,2.0,308.3237163,19.94841848,-99999.0,'11111222,11111222,99999999' 
TABS,ioos:station:wmo:42050:1,1996-02-25T00:30:00Z,28.8425,-94.2433,2.0,307.8313598,19.43473437,-99999.0,'11111222,11111222,99999999' 
TABS,ioos:station:wmo:42050:1,1996-02-25T01:00:00Z,28.8425,-94.2433,2.0,310.4100322,23.67917651,-99999.0,'11111222,11111222,99999999' 
TABS,ioos:station:wmo:42050:1,1996-02-25T01:30:00Z,28.8425,-94.2433,2.0,306.9439719,23.31001931,-99999.0,'11111222,11111222,99999999' 
TABS,ioos:station:wmo:42050:1,1996-02-25T02:00:00Z,28.8425,-94.2433,2.0,310.819201,25.99171022,-99999.0,'11111222,11111222,99999999' 
TABS,ioos:station:wmo:42050:1,1996-02-25T02:30:00Z,28.8425,-94.2433,2.0,314.2883104,25.60631367,-99999.0,'11111222,11111222,99999999' 
TABS,ioos:station:wmo:42050:1,1996-02-25T03:00:00Z,28.8425,-94.2433,2.0,316.4623764,24.6648434,-99999.0,'11111222,11111222,99999999' 
TABS,ioos:station:wmo:42050:1,1996-02-25T03:30:00Z,28.8425,-94.2433,2.0,325.3982512,23.35028908,-99999.0,'11111222,11111222,99999999' 
TABS,ioos:station:wmo:42050:1,1996-02-25T04:00:00Z,28.8425,-94.2433,2.0,329.2354988,22.71683957,-99999.0,'11111222,11111222,99999999' 
TABS,ioos:station:wmo:42050:1,1996-02-25T04:30:00Z,28.8425,-94.2433,2.0,329.3068077,22.17672879,-99999.0,'11111222,11111222,99999999' 
TABS,ioos:station:wmo:42050:1,1996-02-25T05:00:00Z,28.8425,-94.2433,2.0,337.5515192,24.98318835,-99999.0,'11111222,11111222,99999999' 
TABS,ioos:station:wmo:42050:1,1996-02-25T05:30:00Z,28.8425,-94.2433,2.0,349.9788222,22.23930979,-99999.0,'11111222,11111222,99999999' 
TABS,ioos:station:wmo:42050:1,1996-02-25T06:00:00Z,28.8425,-94.2433,2.0,352.6932242,23.43027955,-99999.0,'11111222,11111222,99999999' 
TABS,ioos:station:wmo:42050:1,1996-02-25T06:30:00Z,28.8425,-94.2433,2.0,0.000210459,23.54,-99999.0,'11111222,11111222,99999999' 
TABS,ioos:station:wmo:42050:1,1996-02-25T07:00:00Z,28.8425,-94.2433,2.0,1.716506121,25.041234,-99999.0,'11111222,11111222,99999999' 
TABS,ioos:station:wmo:42050:1,1996-02-25T07:30:00Z,28.8425,-94.2433,2.0,6.686619742,24.30531835,-99999.0,'11111222,11111222,99999999' 
TABS,ioos:station:wmo:42050:1,1996-02-25T08:00:00Z,28.8425,-94.2433,2.0,6.62075245,23.24501022,-99999.0,'11111222,11111222,99999999' 
TABS,ioos:station:wmo:42050:1,1996-02-25T08:30:00Z,28.8425,-94.2433,2.0,13.14603967,23.56760701,-99999.0,'11111222,11111222,99999999' 
TABS,ioos:station:wmo:42050:1,1996-02-25T09:00:00Z,28.8425,-94.2433,2.0,18.43511617,23.55896857,-99999.0,'11111222,11111222,99999999' 
TABS,ioos:station:wmo:42050:1,1996-02-25T09:30:00Z,28.8425,-94.2433,2.0,26.88920537,23.72506059,-99999.0,'11111222,11111222,99999999' 
TABS,ioos:station:wmo:42050:1,1996-02-25T10:00:00Z,28.8425,-94.2433,2.0,31.78105123,24.89212124,-99999.0,'11111222,11111222,99999999' 
TABS,ioos:station:wmo:42050:1,1996-02-25T10:30:00Z,28.8425,-94.2433,2.0,37.42061318,24.76714356,-99999.0,'11111222,11111222,99999999' 
TABS,ioos:station:wmo:42050:1,1996-02-25T11:00:00Z,28.8425,-94.2433,2.0,40.27592543,25.58519103,-99999.0,'11111222,11111222,99999999' 
TABS,ioos:station:wmo:42050:1,1996-02-25T11:30:00Z,28.8425,-94.2433,2.0,45.25642165,23.70952762,-99999.0,'11111222,11111222,99999999' 
TABS,ioos:station:wmo:42050:1,1996-02-25T12:00:00Z,28.8425,-94.2433,2.0,54.64759915,22.65794563,-99999.0,'11111222,11111222,99999999' 
TABS,ioos:station:wmo:42050:1,1996-02-25T12:30:00Z,28.8425,-94.2433,2.0,59.81411703,22.23512537,-99999.0,'11111222,11111222,99999999' 
TABS,ioos:station:wmo:42050:1,1996-02-25T13:00:00Z,28.8425,-94.2433,2.0,59.90141483,21.69532899,-99999.0,'11111222,11111222,99999999' 
TABS,ioos:station:wmo:42050:1,1996-02-25T13:30:00Z,28.8425,-94.2433,2.0,64.40420573,23.79516758,-99999.0,'11111222,11111222,99999999' 
TABS,ioos:station:wmo:42050:1,1996-02-25T14:00:00Z,28.8425,-94.2433,2.0,67.7090283,22.38267634,-99999.0,'11111222,11111222,99999999' 
TABS,ioos:station:wmo:42050:1,1996-02-25T14:30:00Z,28.8425,-94.2433,2.0,70.93958391,21.43519536,-99999.0,'11111222,11111222,99999999' 
TABS,ioos:station:wmo:42050:1,1996-02-25T15:00:00Z,28.8425,-94.2433,2.0,77.25811057,25.66196602,-99999.0,'11111222,11111222,99999999' 
TABS,ioos:station:wmo:42050:1,1996-02-25T15:30:00Z,28.8425,-94.2433,2.0,80.9634446,26.54952542,-99999.0,'11111222,11111222,99999999' 
TABS,ioos:station:wmo:42050:1,1996-02-25T16:00:00Z,28.8425,-94.2433,2.0,100.6853281,24.10802771,-99999.0,'11111222,11111222,99999999' 
TABS,ioos:station:wmo:42050:1,1996-02-25T16:30:00Z,28.8425,-94.2433,2.0,118.9128061,24.34438334,-99999.0,'11111222,11111222,99999999' 
TABS,ioos:station:wmo:42050:1,1996-02-25T17:00:00Z,28.8425,-94.2433,2.0,113.2080082,23.8281787,-99999.0,'11111222,11111222,99999999' 
TABS,ioos:station:wmo:42050:1,1996-02-25T17:30:00Z,28.8425,-94.2433,2.0,137.4258115,24.89125348,-99999.0,'11111222,11111222,99999999' 
TABS,ioos:station:wmo:42050:1,1996-02-25T18:00:00Z,28.8425,-94.2433,2.0,143.3673897,21.72018646,-99999.0,'11111222,11111222,99999999' 
TABS,ioos:station:wmo:42050:1,1996-02-25T18:30:00Z,28.8425,-94.2433,2.0,157.0608176,26.37579383,-99999.0,'11111222,11111222,99999999' 
TABS,ioos:station:wmo:42050:1,1996-02-25T19:00:00Z,28.8425,-94.2433,2.0,162.4989692,23.27745691,-99999.0,'11111222,11111222,99999999' 
TABS,ioos:station:wmo:42050:1,1996-02-25T19:30:00Z,28.8425,-94.2433,2.0,167.899946,23.47144861,-99999.0,'11111222,11111222,99999999' 
TABS,ioos:station:wmo:42050:1,1996-02-25T20:00:00Z,28.8425,-94.2433,2.0,173.9420109,23.97387119,-99999.0,'11111222,11111222,99999999' 
TABS,ioos:station:wmo:42050:1,1996-02-25T20:30:00Z,28.8425,-94.2433,2.0,187.1701337,25.07611014,-99999.0,'11111222,11111222,99999999' 
TABS,ioos:station:wmo:42050:1,1996-02-25T21:00:00Z,28.8425,-94.2433,2.0,192.7046861,25.05341693,-99999.0,'11111222,11111222,99999999' 
TABS,ioos:station:wmo:42050:1,1996-02-25T21:30:00Z,28.8425,-94.2433,2.0,200.3213328,25.74224543,-99999.0,'11111222,11111222,99999999' 
TABS,ioos:station:wmo:42050:1,1996-02-25T22:00:00Z,28.8425,-94.2433,2.0,205.4811052,24.59220202,-99999.0,'11111222,11111222,99999999' 
TABS,ioos:station:wmo:42050:1,1996-02-25T22:30:00Z,28.8425,-94.2433,2.0,214.5366071,24.95868787,-99999.0,'11111222,11111222,99999999' 
TABS,ioos:station:wmo:42050:1,1996-02-25T23:00:00Z,28.8425,-94.2433,2.0,221.773767,24.37724349,-99999.0,'11111222,11111222,99999999' 
TABS,ioos:station:wmo:42050:1,1996-02-25T23:30:00Z,28.8425,-94.2433,2.0,232.4755444,25.92368994,-99999.0,'11111222,11111222,99999999' 
TABS,ioos:station:wmo:42050:1,1996-02-26T00:00:00Z,28.8425,-94.2433,2.0,242.3850778,25.39257569,-99999.0,'11111222,11111222,99999999' 
TABS,ioos:station:wmo:42050:1,1996-02-26T00:30:00Z,28.8425,-94.2433,2.0,252.5628954,26.86446352,-99999.0,'11111222,11111222,99999999' 
TABS,ioos:station:wmo:42050:1,1996-02-26T01:00:00Z,28.8425,-94.2433,2.0,260.1400677,31.3023194,-99999.0,'11111222,11111222,99999999' 
TABS,ioos:station:wmo:42050:1,1996-02-26T01:30:00Z,28.8425,-94.2433,2.0,267.7110217,33.55676534,-99999.0,'11111222,11111222,99999999' 
TABS,ioos:station:wmo:42050:1,1996-02-26T02:00:00Z,28.8425,-94.2433,2.0,274.7840244,35.73447215,-99999.0,'11111222,11111222,99999999' 
TABS,ioos:station:wmo:42050:1,1996-02-26T02:30:00Z,28.8425,-94.2433,2.0,281.7592818,37.29262796,-99999.0,'11111222,11111222,99999999' 
TABS,ioos:station:wmo:42050:1,1996-02-26T03:00:00Z,28.8425,-94.2433,2.0,286.629351,35.92234402,-99999.0,'11111222,11111222,99999999' 
TABS,ioos:station:wmo:42050:1,1996-02-26T03:30:00Z,28.8425,-94.2433,2.0,291.6329856,37.18936676,-99999.0,'11111222,11111222,99999999' 
TABS,ioos:station:wmo:42050:1,1996-02-26T04:00:00Z,28.8425,-94.2433,2.0,297.4142251,35.92413812,-99999.0,'11111222,11111222,99999999' 
TABS,ioos:station:wmo:42050:1,1996-02-26T04:30:00Z,28.8425,-94.2433,2.0,306.0643249,37.96575562,-99999.0,'11111222,11111222,99999999' 
TABS,ioos:station:wmo:42050:1,1996-02-26T05:00:00Z,28.8425,-94.2433,2.0,308.1928893,37.34394998,-99999.0,'11111222,11111222,99999999' 
TABS,ioos:station:wmo:42050:1,1996-02-26T05:30:00Z,28.8425,-94.2433,2.0,315.5047644,36.14162835,-99999.0,'11111222,11111222,99999999' 
TABS,ioos:station:wmo:42050:1,1996-02-26T06:00:00Z,28.8425,-94.2433,2.0,320.0366148,34.79671536,-99999.0,'11111222,11111222,99999999' 
TABS,ioos:station:wmo:42050:1,1996-02-26T06:30:00Z,28.8425,-94.2433,2.0,326.3845918,36.32457295,-99999.0,'11111222,11111222,99999999' 
TABS,ioos:station:wmo:42050:1,1996-02-26T07:00:00Z,28.8425,-94.2433,2.0,334.3824605,36.51998083,-99999.0,'11111222,11111222,99999999' 
TABS,ioos:station:wmo:42050:1,1996-02-26T07:30:00Z,28.8425,-94.2433,2.0,342.9938145,34.12209402,-99999.0,'11111222,11111222,99999999' 
TABS,ioos:station:wmo:42050:1,1996-02-26T08:00:00Z,28.8425,-94.2433,2.0,351.2968332,29.54015741,-99999.0,'11111222,11111222,99999999' 
TABS,ioos:station:wmo:42050:1,1996-02-26T08:30:00Z,28.8425,-94.2433,2.0,358.8695222,30.40592048,-99999.0,'11111222,11111222,99999999' 
TABS,ioos:station:wmo:42050:1,1996-02-26T09:00:00Z,28.8425,-94.2433,2.0,9.115329149,28.2163162,-99999.0,'11111222,11111222,99999999' 
TABS,ioos:station:wmo:42050:1,1996-02-26T09:30:00Z,28.8425,-94.2433,2.0,18.01770634,26.4784535,-99999.0,'11111222,11111222,99999999' 
TABS,ioos:station:wmo:42050:1,1996-02-26T10:00:00Z,28.8425,-94.2433,2.0,27.24278943,27.98411156,-99999.0,'11111222,11111222,99999999' 
TABS,ioos:station:wmo:42050:1,1996-02-26T10:30:00Z,28.8425,-94.2433,2.0,36.11348263,31.35473329,-99999.0,'11111222,11111222,99999999' 
TABS,ioos:station:wmo:42050:1,1996-02-26T11:00:00Z,28.8425,-94.2433,2.0,44.24126688,32.03474676,-99999.0,'11111222,11111222,99999999' 
TABS,ioos:station:wmo:42050:1,1996-02-26T11:30:00Z,28.8425,-94.2433,2.0,54.26656947,34.69082299,-99999.0,'11111222,11111222,99999999' 
TABS,ioos:station:wmo:42050:1,1996-02-26T12:00:00Z,28.8425,-94.2433,2.0,62.05678813,36.25715102,-99999.0,'11111222,11111222,99999999' 
TABS,ioos:station:wmo:42050:1,1996-02-26T12:30:00Z,28.8425,-94.2433,2.0,71.76919061,39.06070148,-99999.0,'11111222,11111222,99999999' 
TABS,ioos:station:wmo:42050:1,1996-02-26T13:00:00Z,28.8425,-94.2433,2.0,81.30181489,34.51699292,-99999.0,'11111222,11111222,99999999' 
TABS,ioos:station:wmo:42050:1,1996-02-26T13:30:00Z,28.8425,-94.2433,2.0,90.50155397,34.27131308,-99999.0,'11111222,11111222,99999999' 
TABS,ioos:station:wmo:42050:1,1996-02-26T14:00:00Z,28.8425,-94.2433,2.0,105.2261568,27.79572629,-99999.0,'11111222,11111222,99999999' 
TABS,ioos:station:wmo:42050:1,1996-02-26T14:30:00Z,28.8425,-94.2433,2.0,118.6620542,29.20919376,-99999.0,'11111222,11111222,99999999' 
TABS,ioos:station:wmo:42050:1,1996-02-26T15:00:00Z,28.8425,-94.2433,2.0,128.6630673,26.71508375,-99999.0,'11111222,11111222,99999999' 
TABS,ioos:station:wmo:42050:1,1996-02-26T15:30:00Z,28.8425,-94.2433,2.0,137.1209862,28.46641003,-99999.0,'11111222,11111222,99999999' 
TABS,ioos:station:wmo:42050:1,1996-02-26T16:00:00Z,28.8425,-94.2433,2.0,154.8937443,25.99600931,-99999.0,'11111222,11111222,99999999' 